Location: Lincoln School
(38.7411°N, 98.9112°W)
Time: 15:41:12
(UTC+00:00)

Daily predictions for brighter satellites

Satellite Brightness Start Highest point End
(mag) Time Altitude Azimuth Time Altitude Azimuth Time Altitude Azimuth
Cosmos 1814 Rocket 4.4 12:00:23 10° S 12:05:26 62° ESE 12:10:30 10° NNE
Cosmos 1937 Rocket 3.6 12:01:34 13° NNW 12:06:18 77° ENE 12:11:31 10° SSE
Cosmos 1464 Rocket 3.8 12:01:20 10° SSW 12:07:24 67° W 12:13:32 10° N
USA 276 4.0 12:09:49 20° SSW 12:09:49 20° SSW 12:11:22 10° SSE
Cosmos 1455 Rocket 3.1 12:05:57 10° SSW 12:10:11 48° W 12:14:24 10° N
GEOS 3 Rocket 3.8 12:06:24 10° SE 12:11:43 75° NE 12:16:02 17° NNW
Cosmos 1072 Rocket 4.5 12:06:20 10° SSW 12:12:23 56° W 12:18:33 10° N
Envisat 3.5 12:07:22 10° NNE 12:12:24 61° E 12:17:24 10° S
ERS-2 1.9 12:10:57 10° S 12:14:35 74° WSW 12:16:23 28° NNW
SKYMED 2 3.6 12:10:26 10° S 12:14:40 54° W 12:17:01 25° NNW
ATLAS CENTAUR R/B 3.0 12:13:36 10° S 12:16:57 32° ESE 12:20:15 10° NE
Cosmos 1689 Rocket 2.2 12:14:41 10° SSE 12:17:35 68° ENE 12:19:13 23° N
Meteor PRIRODA 3.6 12:15:11 10° N 12:18:44 55° WNW 12:22:16 10° SSW
Cosmos 1953 2.2 12:15:02 10° SSW 12:18:59 65° W 12:22:56 10° N
COSMOS 2428 3.5 12:20:32 27° WNW 12:20:52 27° WNW 12:25:41 10° N
H-2A R/B 4.4 12:16:46 10° NNE 12:20:52 34° E 12:24:59 10° SSE
BREEZE M DEB (TANK) 1.0 12:20:56 81° ENE 12:20:56 81° ENE 12:23:01 10° ESE
Cosmos 1908 3.1 12:18:52 10° S 12:22:39 87° E 12:26:29 10° N
CZ-4B R/B 3.2 12:22:12 10° SSW 12:23:28 18° SW 12:23:28 18° SW
Cosmos 44 Rocket 3.5 12:22:00 15° NNW 12:26:22 83° ENE 12:31:34 10° SSE
deb Chang Zheng 4 4.0 12:24:09 10° N 12:28:02 36° WNW 12:31:54 10° SW
Cosmos 1980 3.7 12:23:34 10° SW 12:29:07 56° WNW 12:34:41 10° NNE
USA 307 3.9 12:29:04 10° SSW 12:33:07 47° SE 12:37:11 10° ENE
MOS 1 Rocket 3.5 12:28:24 10° S 12:33:24 54° W 12:38:07 10° NNW
Okean O Rocket 3.6 12:30:28 10° NE 12:34:23 31° E 12:38:14 10° SSE
Cosmos 540 Rocket 3.7 12:30:08 10° SW 12:35:01 46° WNW 12:39:57 10° N
CZ-2C R/B 2.2 12:34:12 14° SW 12:37:21 40° S 12:41:03 10° E
PSLV R/B 4.0 12:34:03 10° S 12:38:02 54° W 12:42:07 10° NNW
Cosmos 1092 Rocket 4.2 12:32:47 10° N 12:38:58 76° E 12:45:08 10° S
Cosmos 1461 4.3 12:37:46 22° WNW 12:39:00 24° NW 12:42:54 10° N
BREEZE-M (TANK) 2.8 12:40:03 19° NNW 12:40:54 26° NNE 12:42:39 10° E
USA 308 3.5 12:37:41 10° SSW 12:41:49 57° SE 12:45:58 10° NE
USA 305 3.4 12:38:05 10° SW 12:42:16 61° SE 12:46:28 10° NE
Cosmos 2034 Rocket 4.2 12:38:58 10° SSW 12:45:04 48° WNW 12:51:13 10° N
Cosmos 1602 Rocket 3.6 12:41:20 10° N 12:45:48 88° W 12:50:15 10° S
OAO 2 Rocket 3.7 12:43:17 16° W 12:47:06 53° S 12:51:53 10° ESE
SL-8 R/B 3.8 12:44:31 17° NW 12:48:17 80° NNE 12:53:06 10° ESE
SMAP 3.5 12:44:07 10° NNE 12:48:46 67° ESE 12:53:22 10° S
CZ-4B DEB 4.2 12:43:15 10° NNE 12:48:50 86° WNW 12:54:23 10° SSW
Spot 2 3.9 12:45:27 10° NNE 12:49:30 89° WNW 12:53:34 10° SSW
USA 306 3.0 12:49:51 10° SW 12:54:05 78° SE 12:58:21 10° NE
Nadezhda 4 Rocket 4.2 12:49:42 10° NNW 12:55:30 46° W 13:01:16 10° SSW
Cosmos 1340 2.7 12:52:05 10° NNW 12:55:47 57° W 12:59:27 10° S
Cosmos 1634 Rocket 3.9 12:54:48 10° S 13:00:57 80° W 13:07:10 10° N
Cosmos 1703 3.6 12:57:47 10° NNW 13:01:29 43° W 13:05:12 10° SSW
COSMO-SKYMED 1 4.2 13:00:24 10° SW 13:03:02 16° W 13:05:40 10° NW
Cosmos 1825 Rocket 4.4 12:58:50 10° N 13:03:14 55° E 13:07:35 10° SSE
NOSS 3-2 (A) 3.3 12:58:15 10° SW 13:03:46 82° NW 13:10:04 10° NNE
CZ-4B R/B 4.3 13:02:01 10° NW 13:03:58 14° WNW 13:05:57 10° W
Cosmos 1346 Rocket 3.1 13:04:37 10° N 13:08:36 72° E 13:12:33 10° SSE
ATLAS 5 CENTAUR R/B 3.0 13:06:55 12° WNW 13:09:23 35° SW 13:15:55 10° SSE
Cosmos 841 Rocket 4.4 13:05:29 10° WSW 13:09:39 25° WNW 13:13:51 10° N
H-2A R/B 4.2 13:10:06 10° NNW 13:12:20 16° WNW 13:14:35 10° WSW
NOSS 3-2 (C) 3.7 13:08:03 10° SSW 13:13:29 69° ESE 13:19:38 10° NE
Lacrosse 5 rocket 1.1 13:10:38 10° NW 13:14:28 80° NE 13:18:07 10° SE
Lacrosse 4 Rocket 1.7 13:12:01 10° SW 13:16:02 44° WNW 13:20:11 10° NNE
Cosmos 1939 Rocket 3.3 13:16:29 10° NNE 13:20:23 67° E 13:24:14 10° S
Cosmos 2098 Rocket 3.6 13:18:36 10° N 13:24:42 74° W 13:29:28 10° S
Cosmos 1953 Rocket 4.2 13:20:27 10° N 13:24:44 61° E 13:29:01 10° SSE
Meteor 1-11 4.3 13:19:41 10° NNW 13:25:11 63° W 13:30:41 10° S
Cosmos 2298 Rocket 4.1 13:21:01 10° NNW 13:26:21 72° WSW 13:31:38 10° S
Cosmos 2369 Rocket 3.9 13:22:33 10° N 13:27:26 30° ENE 13:32:17 10° ESE
SL-16 R/B 2.3 13:22:16 10° SW 13:27:48 56° WNW 13:33:23 10° NNE
